This is the latest recevied weather packets stored in our database for station/object W2OBX. If no packets are shown the sender has not sent any weather packets the latest 10 day(s).
| Time | Temp. | Humidity | Pressure | Rain* | Wind** | Luminosity | Snow |
|---|---|---|---|---|---|---|---|
| 1777917389 | 23.89° C | 46% | 1015.4 hPa | 0 mm | - | 763 W/m² | - |
| 1777917086 | 22.78° C | 47% | 1015.6 hPa | 0 mm | - | 749 W/m² | - |
| 1777916784 | 22.78° C | 46% | 1015.6 hPa | 0 mm | - | 742 W/m² | - |
| 1777916480 | 22.78° C | 48% | 1015.6 hPa | 0 mm | - | 725 W/m² | - |
| 1777916178 | 22.78° C | 47% | 1015.7 hPa | 0 mm | - | 736 W/m² | - |
| 1777915875 | 23.33° C | 49% | 1015.9 hPa | 0 mm | - | 702 W/m² | - |
| 1777915571 | 22.78° C | 49% | 1016.1 hPa | 0 mm | - | 752 W/m² | - |
| 1777915268 | 22.78° C | 48% | 1015.8 hPa | 0 mm | - | 703 W/m² | - |
| 1777914964 | 22.78° C | 48% | 1015.9 hPa | 0 mm | - | 664 W/m² | - |
| 1777914662 | 22.22° C | 49% | 1016.1 hPa | 0 mm | - | 733 W/m² | - |
| 1777914357 | 22.22° C | 47% | 1016.2 hPa | 0 mm | - | 730 W/m² | - |
| 1777914055 | 22.22° C | 46% | 1016.3 hPa | 0 mm | - | 715 W/m² | - |
| 1777913751 | 22.22° C | 49% | 1016.4 hPa | 0 mm | - | 80 W/m² | - |
| 1777913448 | 21.67° C | 48% | 1016.5 hPa | 0 mm | - | 55 W/m² | - |
| 1777913144 | 21.11° C | 51% | 1016.7 hPa | 0 mm | - | 56 W/m² | - |
| 1777912841 | 20.56° C | 51% | 1016.5 hPa | 0 mm | - | 59 W/m² | - |
| 1777912537 | 20.56° C | 49% | 1016.6 hPa | 0 mm | - | 64 W/m² | - |
| 1777912234 | 20.56° C | 52% | 1016.9 hPa | 0 mm | - | 52 W/m² | - |
| 1777911930 | 20° C | 50% | 1017 hPa | 0 mm | - | 57 W/m² | - |
| 1777911626 | 20° C | 50% | 1017 hPa | 0 mm | - | 54 W/m² | - |
| 1777911322 | 20° C | 50% | 1017.1 hPa | 0 mm | - | 55 W/m² | - |
| 1777911020 | 20° C | 50% | 1017.2 hPa | 0 mm | - | 59 W/m² | - |
| 1777910718 | 19.44° C | 51% | 1017.2 hPa | 0 mm | - | 60 W/m² | - |
| 1777910414 | 19.44° C | 50% | 1017.5 hPa | 0 mm | - | 55 W/m² | - |
| 1777910110 | 19.44° C | 52% | 1017.5 hPa | 0 mm | - | 52 W/m² | - |
* Rain latest hour (hover to see other rain measurements)
** Current wind speed in m/s (hover to see current wind gust speed)